• In Belarus
  • List of Countries
  • For 7 days
  • Water Temperature
  • Satellite Maps
  • Weather Map
  • Weather Widgets
  • user-avatar
    Login

    Hourly Weather Korçe

    Today, 20 November, Monday

    Time Temperature Precipitation Wind Pressure Humidity
    00:00 +4°C° 0.2 mm 2 mps 661 mmHg 91%
    01:00 +4°C° 0 mm 2 mps 661 mmHg 91%
    02:00 +4°C° 0.6 mm 2 mps 661 mmHg 90%
    03:00 +3°C° 0.6 mm 2 mps 661 mmHg 90%
    04:00 +2°C° 0.6 mm 3 mps 661 mmHg 90%
    05:00 +3°C° 0.9 mm 2 mps 662 mmHg 90%
    06:00 +3°C° 0.9 mm 2 mps 662 mmHg 90%
    07:00 +3°C° 0 mm 2 mps 662 mmHg 89%
    08:00 +2°C° 0.4 mm 3 mps 662 mmHg 83%
    09:00 +3°C° 0.4 mm 3 mps 663 mmHg 76%
    10:00 +3°C° 0.4 mm 3 mps 663 mmHg 69%
    11:00 +3°C° 0 mm 3 mps 664 mmHg 66%
    12:00 +4°C° 0 mm 4 mps 664 mmHg 63%
    13:00 +4°C° 0 mm 4 mps 664 mmHg 58%
    14:00 +3°C° 0 mm 4 mps 664 mmHg 60%
    15:00 +2°C° 0 mm 3 mps 665 mmHg 63%
    16:00 +3°C° 0 mm 2 mps 665 mmHg 66%
    17:00 +2°C° 0 mm 2 mps 665 mmHg 69%
    18:00 +1°C° 0 mm 2 mps 665 mmHg 71%
    19:00 +1°C° 0 mm 1 mps 666 mmHg 73%
    20:00 +1°C° 0 mm 1 mps 666 mmHg 73%
    21:00 0°C° 0 mm 1 mps 666 mmHg 73%
    22:00 0°C° 0 mm 1 mps 667 mmHg 74%
    23:00 0°C° 0 mm 1 mps 667 mmHg 72%

    Tomorrow, 21 November, Tuesday

    Time Temperature Precipitation Wind Pressure Humidity
    00:00 0°C° 0 mm 1 mps 667 mmHg 71%
    01:00 0°C° 0 mm 1 mps 667 mmHg 70%
    02:00 0°C° 0 mm 1 mps 667 mmHg 68%
    03:00 0°C° 0 mm 1 mps 667 mmHg 66%
    04:00 0°C° 0 mm 1 mps 667 mmHg 64%
    05:00 0°C° 0 mm 1 mps 667 mmHg 62%
    06:00 0°C° 0 mm 1 mps 667 mmHg 59%
    07:00 0°C° 0 mm 1 mps 667 mmHg 57%
    08:00 +2°C° 0 mm 1 mps 668 mmHg 50%
    09:00 +4°C° 0 mm 1 mps 669 mmHg 44%
    10:00 +6°C° 0 mm 1 mps 669 mmHg 38%
    11:00 +6°C° 0 mm 2 mps 669 mmHg 38%
    12:00 +6°C° 0 mm 2 mps 669 mmHg 38%
    13:00 +7°C° 0 mm 2 mps 669 mmHg 38%
    14:00 +6°C° 0 mm 2 mps 669 mmHg 44%
    15:00 +4°C° 0 mm 2 mps 668 mmHg 50%
    16:00 +4°C° 0 mm 1 mps 668 mmHg 56%
    17:00 +3°C° 0 mm 1 mps 668 mmHg 57%
    18:00 +3°C° 0 mm 1 mps 668 mmHg 58%
    19:00 +2°C° 0 mm 1 mps 668 mmHg 60%
    20:00 +2°C° 0 mm 1 mps 668 mmHg 59%
    21:00 +2°C° 0 mm 1 mps 668 mmHg 58%
    22:00 +2°C° 0 mm 1 mps 668 mmHg 57%
    23:00 +2°C° 0 mm 1 mps 668 mmHg 56%

    Day after tomorrow, 22 November, Wednesday

    Time Temperature Precipitation Wind Pressure Humidity
    00:00 +2°C° 0 mm 1 mps 668 mmHg 55%
    01:00 +2°C° 0 mm 1 mps 668 mmHg 54%
    02:00 +2°C° 0 mm 1 mps 668 mmHg 54%
    03:00 +2°C° 0 mm 1 mps 668 mmHg 54%
    04:00 +2°C° 0 mm 1 mps 668 mmHg 54%
    05:00 +2°C° 0 mm 1 mps 668 mmHg 55%
    06:00 +2°C° 0 mm 1 mps 668 mmHg 57%
    07:00 +2°C° 0 mm 1 mps 668 mmHg 59%
    08:00 +4°C° 0 mm 1 mps 669 mmHg 56%
    09:00 +6°C° 0 mm 1 mps 669 mmHg 53%
    10:00 +8°C° 0 mm 1 mps 670 mmHg 50%
    11:00 +9°C° 0 mm 1 mps 670 mmHg 50%
    12:00 +10°C° 0 mm 1 mps 670 mmHg 49%
    13:00 +10°C° 0 mm 2 mps 670 mmHg 49%
    14:00 +9°C° 0 mm 1 mps 669 mmHg 56%
    15:00 +8°C° 0 mm 1 mps 669 mmHg 62%
    16:00 +7°C° 0 mm 1 mps 668 mmHg 69%
    17:00 +6°C° 0 mm 1 mps 668 mmHg 71%
    18:00 +5°C° 0 mm 1 mps 668 mmHg 73%
    19:00 +4°C° 0 mm 1 mps 668 mmHg 75%
    20:00 +4°C° 0 mm 1 mps 669 mmHg 75%
    21:00 +4°C° 0 mm 1 mps 669 mmHg 74%
    22:00 +4°C° 0 mm 1 mps 669 mmHg 73%
    23:00 +4°C° 0 mm 1 mps 669 mmHg 72%

    23 November, Thursday

    Time Temperature Precipitation Wind Pressure Humidity
    00:00 +4°C° 0 mm 1 mps 669 mmHg 71%
    01:00 +4°C° 0 mm 1 mps 669 mmHg 70%
    02:00 +4°C° 0 mm 1 mps 668 mmHg 70%
    03:00 +4°C° 0 mm 1 mps 668 mmHg 69%
    04:00 +4°C° 0 mm 1 mps 668 mmHg 68%
    05:00 +4°C° 0 mm 1 mps 668 mmHg 68%
    06:00 +4°C° 0 mm 1 mps 669 mmHg 67%
    07:00 +4°C° 0 mm 1 mps 669 mmHg 67%
    08:00 +6°C° 0 mm 1 mps 670 mmHg 60%
    09:00 +8°C° 0 mm 1 mps 670 mmHg 54%
    10:00 +10°C° 0 mm 1 mps 671 mmHg 47%
    11:00 +11°C° 0 mm 1 mps 671 mmHg 46%
    12:00 +12°C° 0 mm 1 mps 671 mmHg 45%
    13:00 +12°C° 0 mm 2 mps 671 mmHg 44%
    14:00 +11°C° 0 mm 1 mps 670 mmHg 50%
    15:00 +10°C° 0 mm 1 mps 670 mmHg 56%
    16:00 +8°C° 0 mm 1 mps 670 mmHg 63%
    17:00 +7°C° 0 mm 1 mps 670 mmHg 65%
    18:00 +6°C° 0 mm 1 mps 670 mmHg 67%
    19:00 +6°C° 0 mm 1 mps 670 mmHg 69%
    20:00 +5°C° 0 mm 1 mps 670 mmHg 68%
    21:00 +5°C° 0 mm 1 mps 670 mmHg 67%
    22:00 +5°C° 0 mm 1 mps 670 mmHg 67%
    23:00 +5°C° 0 mm 1 mps 670 mmHg 66%

    24 November, Friday

    Time Temperature Precipitation Wind Pressure Humidity
    00:00 +5°C° 0 mm 1 mps 670 mmHg 65%
    01:00 +5°C° 0 mm 1 mps 670 mmHg 64%
    02:00 +4°C° 0 mm 1 mps 670 mmHg 64%
    03:00 +4°C° 0 mm 1 mps 669 mmHg 63%
    04:00 +4°C° 0 mm 1 mps 669 mmHg 63%
    05:00 +4°C° 0 mm 1 mps 669 mmHg 63%
    06:00 +4°C° 0 mm 1 mps 670 mmHg 64%
    07:00 +4°C° 0 mm 1 mps 670 mmHg 64%
    08:00 +6°C° 0 mm 1 mps 670 mmHg 59%
    09:00 +8°C° 0 mm 1 mps 671 mmHg 55%
    10:00 +10°C° 0 mm 1 mps 672 mmHg 50%
    11:00 +11°C° 0 mm 1 mps 671 mmHg 50%
    12:00 +12°C° 0 mm 1 mps 671 mmHg 49%
    13:00 +12°C° 0 mm 1 mps 671 mmHg 49%
    14:00 +11°C° 0 mm 1 mps 671 mmHg 56%
    15:00 +10°C° 0 mm 1 mps 670 mmHg 62%
    16:00 +8°C° 0 mm 1 mps 670 mmHg 69%
    17:00 +8°C° 0 mm 1 mps 670 mmHg 72%
    18:00 +7°C° 0 mm 1 mps 670 mmHg 74%
    19:00 +6°C° 0 mm 1 mps 670 mmHg 76%
    20:00 +6°C° 0 mm 1 mps 670 mmHg 76%
    21:00 +5°C° 0 mm 1 mps 671 mmHg 75%
    22:00 +5°C° 0 mm 1 mps 671 mmHg 74%
    23:00 +5°C° 0 mm 1 mps 671 mmHg 74%

    25 November, Saturday

    Time Temperature Precipitation Wind Pressure Humidity
    00:00 +5°C° 0 mm 1 mps 671 mmHg 74%
    01:00 +5°C° 0 mm 1 mps 671 mmHg 74%
    02:00 +4°C° 0 mm 1 mps 671 mmHg 74%
    03:00 +4°C° 0 mm 1 mps 671 mmHg 75%
    04:00 +4°C° 0 mm 1 mps 671 mmHg 75%
    05:00 +4°C° 0 mm 1 mps 671 mmHg 76%
    06:00 +4°C° 0 mm 1 mps 671 mmHg 76%
    07:00 +3°C° 0 mm 2 mps 671 mmHg 77%
    08:00 +6°C° 0 mm 1 mps 672 mmHg 70%
    09:00 +8°C° 0 mm 1 mps 672 mmHg 63%
    10:00 +10°C° 0 mm 1 mps 673 mmHg 56%
    11:00 +11°C° 0 mm 1 mps 673 mmHg 54%
    12:00 +11°C° 0 mm 1 mps 673 mmHg 51%
    13:00 +12°C° 0 mm 1 mps 673 mmHg 49%
    14:00 +11°C° 0 mm 1 mps 672 mmHg 55%
    15:00 +10°C° 0 mm 1 mps 672 mmHg 61%
    16:00 +8°C° 0 mm 1 mps 672 mmHg 67%
    17:00 +8°C° 0 mm 1 mps 672 mmHg 70%
    18:00 +7°C° 0 mm 1 mps 672 mmHg 74%
    19:00 +6°C° 0 mm 1 mps 672 mmHg 77%
    20:00 +6°C° 0 mm 1 mps 672 mmHg 78%
    21:00 +5°C° 0 mm 1 mps 672 mmHg 79%
    22:00 +5°C° 0 mm 1 mps 672 mmHg 80%
    23:00 +5°C° 0 mm 1 mps 672 mmHg 80%
    Show more